DW8622 Weather Reports


Display with metric or nautical units.
time (UTC)temp
F
wind
direction
speed
MPH
gust
MPH
rain 1hr
in
rain 24hr
in
rain mn
in
humidity
%
barometer
mb
20260509085505 65 45 4.0 8.0 0.00 0.00 0.00 64 1018.8
20260509084506 65 42 3.0 8.0 0.00 0.00 0.00 66 1018.8
20260509084005 64 48 3.0 8.0 0.00 0.00 0.00 68 1018.8
20260509083505 64 48 4.0 8.0 0.00 0.00 0.00 66 1018.8
20260509083006 64 46 4.0 9.0 0.00 0.00 0.00 67 1018.7
20260509082505 64 43 5.0 9.0 0.00 0.00 0.00 68 1018.8
20260509082006 64 36 5.0 8.0 0.00 0.00 0.00 71 1018.7
20260509081505 64 33 4.0 8.0 0.00 0.00 0.00 72 1018.7
20260509081020 63 33 4.0 8.0 0.00 0.00 0.00 71 1018.7
20260509080505 63 34 4.0 7.0 0.00 0.00 0.00 72 1018.7
20260509080006 63 41 5.0 9.0 0.00 0.00 0.00 74 1018.8
20260509075005 62 45 5.0 9.0 0.00 0.00 0.00 75 1018.8
20260509074506 62 43 5.0 9.0 0.00 0.00 0.00 76 1018.7
20260509073506 60 42 5.0 9.0 0.00 0.00 0.00 78 1018.8
20260509073006 60 42 6.0 9.0 0.00 0.00 0.00 79 1018.8
20260509072505 59 35 6.0 9.0 0.00 0.00 0.00 80 1018.7
20260509072005 59 32 5.0 8.0 0.00 0.00 0.00 82 1018.8
20260509071505 58 31 4.0 8.0 0.00 0.00 0.00 83 1018.8
20260509071007 58 35 4.0 8.0 0.00 0.00 0.00 84 1018.8
20260509070506 57 34 4.0 8.0 0.00 0.00 0.00 85 1018.8
20260509070006 56 30 4.0 8.0 0.00 0.00 0.00 85 1018.8
20260509065006 55 36 4.0 6.0 0.00 0.00 0.00 87 1019.0
20260509064507 54 31 3.0 5.0 0.00 0.00 0.00 88 1018.9
20260509064005 54 34 3.0 5.0 0.00 0.00 0.00 88 1018.9
20260509063505 53 42 3.0 6.0 0.00 0.00 0.00 89 1019.0
20260509063005 53 37 3.0 6.0 0.00 0.00 0.00 89 1019.0
20260509062506 53 30 3.0 5.0 0.00 0.00 0.00 89 1018.9
20260509061005 51 40 4.0 7.0 0.00 0.00 0.00 90 1018.9
20260509060506 51 36 3.0 6.0 0.00 0.00 0.00 91 1019.0
20260509055506 50 35 3.0 5.0 0.00 0.00 0.00 92 1019.0
20260509055005 50 34 2.0 4.0 0.00 0.00 0.00 92 1019.0
20260509054505 49 35 1.0 4.0 0.00 0.00 0.00 92 1018.9
20260509053006 48 0 0.0 0.0 0.00 0.00 0.00 93 1018.8
20260509052505 48 0 0.0 0.0 0.00 0.00 0.00 93 1018.7
20260509052005 48 0 0.0 0.0 0.00 0.00 0.00 93 1018.7
20260509051005 47 0 0.0 0.0 0.00 0.00 0.00 93 1018.7
20260509050506 47 0 0.0 0.0 0.00 0.00 0.00 93 1018.7
20260509045506 47 0 0.0 0.0 0.00 0.00 0.00 93 1018.7
20260509044506 46 0 0.0 0.0 0.00 0.00 0.00 93 1018.6
20260509044005 46 0 0.0 0.0 0.00 0.00 0.00 93 1018.5
20260509043505 46 0 0.0 0.0 0.00 0.00 0.00 93 1018.5
20260509043006 46 0 0.0 0.0 0.00 0.00 0.00 93 1018.5
20260509042506 46 0 0.0 0.0 0.00 0.00 0.00 93 1018.5
20260509042006 45 0 0.0 0.0 0.00 0.00 0.00 92 1018.4
20260509041506 46 0 0.0 0.0 0.00 0.00 0.00 92 1018.4
20260509041006 46 0 0.0 0.0 0.00 0.00 0.00 92 1018.4
20260509040506 46 0 0.0 0.0 0.00 0.00 0.00 92 1018.4
20260509040006 46 0 0.0 0.0 0.00 0.00 0.00 92 1018.3
20260509035506 46 0 0.0 0.0 0.00 0.00 0.00 92 1018.3
20260509035006 46 0 0.0 0.0 0.00 0.00 0.00 93 1018.4
20260509034006 45 0 0.0 0.0 0.00 0.00 0.00 92 1018.4
20260509033506 45 0 0.0 0.0 0.00 0.00 0.00 92 1018.4
20260509033006 46 0 0.0 0.0 0.00 0.00 0.00 92 1018.4
20260509032506 46 0 0.0 0.0 0.00 0.00 0.00 92 1018.5
20260509031505 46 0 0.0 0.0 0.00 0.00 0.00 91 1018.5
20260509030505 46 0 0.0 0.0 0.00 0.00 0.00 91 1018.6
20260509030006 47 0 0.0 0.0 0.00 0.00 0.00 91 1018.5
20260509025506 47 0 0.0 0.0 0.00 0.00 0.00 92 1018.5
20260509024506 46 0 0.0 0.0 0.00 0.00 0.00 91 1018.5
20260509024006 46 0 0.0 0.0 0.00 0.00 0.00 91 1018.6
20260509023506 46 0 0.0 0.0 0.00 0.00 0.00 91 1018.5
20260509022506 46 0 0.0 0.0 0.00 0.00 0.00 91 1018.5
20260509022006 46 0 0.0 0.0 0.00 0.00 0.00 91 1018.5
20260509021507 46 0 0.0 0.0 0.00 0.00 0.00 91 1018.5
20260509021005 46 0 0.0 0.0 0.00 0.00 0.00 91 1018.5
20260509020505 46 0 0.0 0.0 0.00 0.00 0.00 91 1018.5
20260509020003 46 0 0.0 0.0 0.00 0.00 0.00 91 1018.5
20260509015006 46 0 0.0 0.0 0.00 0.00 0.00 91 1018.5
20260509014505 46 0 0.0 0.0 0.00 0.00 0.00 91 1018.5
20260509013006 46 0 0.0 0.0 0.00 0.00 0.00 91 1018.5
20260509012006 46 0 0.0 0.0 0.00 0.00 0.00 91 1018.6
20260509011005 46 0 0.0 0.0 0.00 0.00 0.00 90 1018.6
20260509010505 46 0 0.0 0.0 0.00 0.00 0.00 90 1018.6
20260509010005 46 0 0.0 0.0 0.00 0.00 0.00 90 1018.6
20260509005005 47 0 0.0 0.0 0.00 0.00 0.00 90 1018.6
20260509004006 47 0 0.0 0.0 0.00 0.00 0.00 90 1018.5
20260509003006 47 0 0.0 0.0 0.00 0.00 0.00 90 1018.5
20260509002506 47 0 0.0 0.0 0.00 0.00 0.00 90 1018.5
20260509002007 47 0 0.0 0.0 0.00 0.00 0.00 90 1018.5
20260509001506 48 0 0.0 0.0 0.00 0.00 0.00 90 1018.6
20260509001006 48 0 0.0 0.0 0.00 0.00 0.00 89 1018.5
20260509000506 49 0 0.0 0.0 0.00 0.00 0.00 90 1018.5
20260509000005 49 0 0.0 0.0 0.00 0.00 0.00 90 1018.6
20260508235005 49 0 0.0 0.0 0.00 0.00 0.00 89 1018.6
20260508234505 49 0 0.0 0.0 0.00 0.00 0.00 89 1018.6
20260508233505 49 0 0.0 0.0 0.00 0.00 0.00 89 1018.6
20260508233006 49 0 0.0 0.0 0.00 0.00 0.00 89 1018.6
20260508232505 49 0 0.0 0.0 0.00 0.00 0.00 89 1018.6
20260508232005 50 0 0.0 0.0 0.00 0.00 0.00 89 1018.6
20260508231502 50 0 0.0 0.0 0.00 0.00 0.00 88 1018.6
20260508231005 50 0 0.0 0.0 0.00 0.00 0.00 88 1018.5
20260508230505 50 0 0.0 0.0 0.00 0.00 0.00 87 1018.5
20260508230005 50 0 0.0 0.0 0.00 0.00 0.00 87 1018.5
20260508225507 50 0 0.0 0.0 0.00 0.00 0.00 86 1018.5
20260508225006 50 0 0.0 0.0 0.00 0.00 0.00 86 1018.5
20260508224506 50 0 0.0 0.0 0.00 0.00 0.00 86 1018.5
20260508224006 51 0 0.0 0.0 0.00 0.00 0.00 86 1018.6
20260508223506 51 0 0.0 0.0 0.00 0.00 0.00 85 1018.6
20260508223006 51 0 0.0 0.0 0.00 0.00 0.00 86 1018.6
20260508222505 51 0 0.0 0.0 0.00 0.00 0.00 86 1018.6
20260508222006 51 0 0.0 0.0 0.00 0.00 0.00 85 1018.6
20260508221505 51 0 0.0 0.0 0.00 0.00 0.00 85 1018.6
20260508221005 51 0 0.0 0.0 0.00 0.00 0.00 85 1018.6
20260508220506 52 0 0.0 0.0 0.00 0.00 0.00 84 1018.6
20260508220006 52 0 0.0 0.0 0.00 0.00 0.00 84 1018.6
20260508215506 52 0 0.0 0.0 0.00 0.00 0.00 83 1018.6
20260508215006 52 0 0.0 0.0 0.00 0.00 0.00 83 1018.6
20260508214505 52 0 0.0 0.0 0.00 0.00 0.00 83 1018.6
20260508214005 53 0 0.0 0.0 0.00 0.00 0.00 83 1018.6
20260508213505 53 0 0.0 0.0 0.00 0.00 0.00 82 1018.6
20260508212007 54 0 0.0 0.0 0.00 0.00 0.00 81 1018.6
20260508211007 54 0 0.0 0.0 0.00 0.00 0.00 80 1018.5
20260508210506 54 0 0.0 0.0 0.00 0.00 0.00 79 1018.5
20260508210005 54 0 0.0 0.0 0.00 0.00 0.00 79 1018.4
20260508204505 56 0 0.0 0.0 0.00 0.00 0.00 78 1018.4
20260508204006 56 0 0.0 0.0 0.00 0.00 0.00 77 1018.4
20260508203506 56 0 0.0 0.0 0.00 0.00 0.00 77 1018.4
20260508202505 56 0 0.0 0.0 0.00 0.00 0.00 76 1018.4
20260508202005 57 0 0.0 0.0 0.00 0.00 0.00 75 1018.4
20260508201506 57 0 0.0 0.0 0.00 0.00 0.00 74 1018.4
20260508201006 57 0 0.0 0.0 0.00 0.00 0.00 72 1018.4
20260508200506 57 0 0.0 0.0 0.00 0.00 0.00 73 1018.3
20260508195006 57 0 0.0 0.0 0.00 0.00 0.00 76 1018.3
20260508194506 56 0 0.0 0.0 0.00 0.00 0.00 76 1018.3
20260508194005 56 0 0.0 0.0 0.00 0.00 0.00 77 1018.3
20260508193506 56 0 0.0 0.0 0.00 0.00 0.00 76 1018.2
20260508192505 57 0 0.0 0.0 0.00 0.00 0.00 74 1018.2
20260508192006 57 0 0.0 0.0 0.00 0.00 0.00 73 1018.1
20260508191506 57 0 0.0 0.0 0.00 0.00 0.00 73 1018.0
20260508191005 57 0 0.0 0.0 0.00 0.00 0.00 72 1018.0
20260508190506 57 0 0.0 0.0 0.00 0.00 0.00 71 1017.9
20260508185505 57 0 0.0 0.0 0.00 0.00 0.00 71 1017.8
20260508185006 57 0 0.0 0.0 0.00 0.00 0.00 71 1017.7
20260508184506 57 0 0.0 0.0 0.00 0.00 0.00 71 1017.6
20260508184005 57 0 0.0 0.0 0.00 0.00 0.00 71 1017.6
20260508183505 58 0 0.0 0.0 0.00 0.00 0.00 71 1017.5
20260508182505 58 0 0.0 0.0 0.00 0.00 0.00 70 1017.5
20260508182006 59 0 0.0 0.0 0.00 0.00 0.00 70 1017.5
20260508181506 59 0 0.0 0.0 0.00 0.00 0.00 69 1017.5
20260508181005 59 0 0.0 0.0 0.00 0.00 0.00 68 1017.5
20260508180506 59 0 0.0 0.0 0.00 0.00 0.00 67 1017.5
20260508180006 60 0 0.0 0.0 0.00 0.00 0.00 66 1017.4
20260508175507 60 0 0.0 0.0 0.00 0.00 0.00 65 1017.4
20260508175006 60 0 0.0 0.0 0.00 0.00 0.00 65 1017.3
20260508174505 60 0 0.0 0.0 0.00 0.00 0.00 65 1017.4
20260508174005 60 0 0.0 0.0 0.00 0.00 0.00 66 1017.3
20260508173505 61 0 0.0 0.0 0.00 0.00 0.00 64 1017.3
20260508173006 61 0 0.0 0.0 0.00 0.00 0.00 63 1017.3
20260508172506 61 0 0.0 0.0 0.00 0.00 0.00 64 1017.2
20260508172006 62 0 0.0 0.0 0.00 0.00 0.00 64 1017.1
20260508171505 62 0 0.0 0.0 0.00 0.00 0.00 62 1017.1
20260508171005 62 0 0.0 0.0 0.00 0.00 0.00 61 1017.1
20260508170505 63 19 0.0 3.0 0.00 0.00 0.00 59 1017.1
20260508170006 63 22 1.0 4.0 0.00 0.00 0.00 58 1017.1
20260508165006 64 14 1.0 4.0 0.00 0.00 0.00 56 1017.0
20260508164006 64 23 0.0 3.0 0.00 0.00 0.00 57 1017.0
20260508163507 64 23 0.0 3.0 0.00 0.00 0.00 58 1016.9
20260508163006 64 22 0.0 5.0 0.00 0.00 0.00 56 1016.9
20260508162505 64 21 1.0 5.0 0.00 0.00 0.00 59 1016.9
20260508162005 64 18 1.0 5.0 0.00 0.00 0.00 58 1016.9
20260508161505 64 19 1.0 5.0 0.00 0.00 0.00 59 1017.0
20260508161016 64 23 1.0 5.0 0.00 0.00 0.00 58 1016.9
20260508160505 64 25 1.0 5.0 0.00 0.00 0.00 60 1016.9
20260508160006 64 24 1.0 5.0 0.00 0.00 0.00 60 1016.9
20260508155506 64 23 1.0 5.0 0.00 0.00 0.00 60 1016.9
20260508155005 64 26 1.0 5.0 0.00 0.00 0.00 62 1017.0
20260508154505 64 26 2.0 5.0 0.00 0.00 0.00 61 1017.0
20260508154006 64 27 3.0 5.0 0.00 0.00 0.00 61 1017.0
20260508153506 64 28 2.0 6.0 0.00 0.00 0.00 62 1017.0
20260508153003 64 25 4.0 8.0 0.00 0.00 0.00 62 1017.0
20260508152507 64 24 3.0 8.0 0.00 0.00 0.00 61 1017.1
20260508152007 65 27 2.0 7.0 0.00 0.00 0.00 61 1017.1
20260508151522 65 27 4.0 7.0 0.00 0.00 0.00 60 1017.1
20260508151005 65 29 4.0 8.0 0.00 0.00 0.00 59 1017.1
20260508150507 65 31 4.0 8.0 0.00 0.00 0.00 60 1017.1
20260508150006 65 31 4.0 8.0 0.00 0.00 0.00 59 1017.2
20260508145506 66 33 4.0 10.0 0.00 0.00 0.00 59 1017.2
20260508144507 67 32 3.0 7.0 0.00 0.00 0.00 55 1017.1
20260508144006 67 40 3.0 8.0 0.00 0.00 0.00 56 1017.1
20260508143505 67 39 2.0 9.0 0.00 0.00 0.00 52 1017.2
20260508142507 67 138 1.0 6.0 0.00 0.00 0.00 48 1017.1
20260508142006 67 145 2.0 7.0 0.00 0.00 0.00 48 1017.2
20260508141506 67 145 1.0 7.0 0.00 0.00 0.00 44 1017.2
20260508141006 67 143 1.0 6.0 0.00 0.00 0.00 39 1017.3
20260508140506 68 137 0.0 4.0 0.00 0.00 0.00 42 1017.2
20260508140006 70 154 0.0 5.0 0.00 0.00 0.00 38 1017.2
20260508135506 70 139 1.0 8.0 0.00 0.00 0.00 41 1017.2
20260508135006 70 129 1.0 8.0 0.00 0.00 0.00 36 1017.2
20260508134506 69 133 1.0 7.0 0.00 0.00 0.00 39 1017.2
20260508133507 70 148 1.0 5.0 0.00 0.00 0.00 35 1017.3
20260508133007 69 139 1.0 6.0 0.00 0.00 0.00 39 1017.3
20260508132505 68 158 1.0 6.0 0.00 0.00 0.00 40 1017.3
20260508132005 68 186 1.0 6.0 0.00 0.00 0.00 42 1017.3
20260508131506 69 171 1.0 6.0 0.00 0.00 0.00 42 1017.3
20260508131005 68 162 0.0 5.0 0.00 0.00 0.00 47 1017.3
20260508130506 67 71 0.0 5.0 0.00 0.00 0.00 45 1017.3
20260508130005 68 61 1.0 3.0 0.00 0.00 0.00 52 1017.4
20260508125506 67 38 1.0 4.0 0.00 0.00 0.00 50 1017.4
20260508125006 68 14 1.0 5.0 0.00 0.00 0.00 57 1017.5
20260508124506 68 307 0.0 5.0 0.00 0.00 0.00 56 1017.5
20260508123005 66 56 1.0 4.0 0.00 0.00 0.00 52 1017.6
20260508122005 67 37 1.0 8.0 0.00 0.00 0.00 57 1017.6
20260508121505 67 42 0.0 3.0 0.00 0.00 0.00 56 1017.6
20260508121005 66 53 0.0 3.0 0.00 0.00 0.00 57 1017.6
20260508120506 66 39 1.0 5.0 0.00 0.00 0.00 58 1017.6
20260508120006 66 44 1.0 7.0 0.00 0.00 0.00 59 1017.6
20260508115522 65 53 1.0 7.0 0.00 0.00 0.00 56 1017.6
20260508115007 65 98 1.0 6.0 0.00 0.00 0.00 60 1017.6
20260508114506 65 88 1.0 6.0 0.00 0.00 0.00 58 1017.6
20260508114006 65 50 1.0 5.0 0.00 0.00 0.00 58 1017.6
20260508113506 65 44 2.0 7.0 0.00 0.00 0.00 61 1017.6
20260508112506 66 33 2.0 7.0 0.00 0.00 0.00 64 1017.7
20260508112006 64 54 2.0 7.0 0.00 0.00 0.00 62 1017.7
20260508111506 65 41 3.0 7.0 0.00 0.00 0.00 64 1017.7
20260508111006 65 33 2.0 6.0 0.00 0.00 0.00 66 1017.7
20260508110506 64 39 3.0 8.0 0.00 0.00 0.00 65 1017.8
20260508110006 64 41 2.0 8.0 0.00 0.00 0.00 64 1017.9
20260508105505 64 39 2.0 6.0 0.00 0.00 0.00 65 1017.9
20260508105005 64 39 3.0 6.0 0.00 0.00 0.00 65 1017.9
20260508104505 63 40 3.0 7.0 0.00 0.00 0.00 69 1017.9
20260508104006 63 39 3.0 7.0 0.00 0.00 0.00 68 1017.9
20260508103506 62 40 2.0 7.0 0.00 0.00 0.00 68 1017.9
20260508103006 62 46 1.0 7.0 0.00 0.00 0.00 68 1017.9
20260508102507 61 53 2.0 6.0 0.00 0.00 0.00 66 1018.0
20260508102005 62 49 2.0 6.0 0.00 0.00 0.00 69 1018.0
20260508101505 61 47 3.0 6.0 0.00 0.00 0.00 71 1018.1
20260508101003 61 47 3.0 8.0 0.00 0.00 0.00 72 1018.1
20260508100506 61 45 3.0 8.0 0.00 0.00 0.00 71 1018.0
20260508100006 61 44 4.0 9.0 0.00 0.00 0.00 73 1018.1
20260508095506 61 46 3.0 9.0 0.00 0.00 0.00 74 1018.0
20260508094507 60 43 2.0 6.0 0.00 0.00 0.00 76 1018.1
20260508094006 59 45 2.0 7.0 0.00 0.00 0.00 75 1018.1
20260508092506 59 44 3.0 7.0 0.00 0.00 0.00 76 1018.1
20260508092006 59 40 4.0 8.0 0.00 0.00 0.00 75 1018.0
20260508091006 58 44 4.0 8.0 0.00 0.00 0.00 77 1018.1
20260508090506 58 38 4.0 8.0 0.00 0.00 0.00 80 1018.1